RJA431 OJAI-OSAP

Flight info

Callsign RJA431
Flight time 0h 52m
Altitude 37000
Route LOSAR L513 LEBOR/N0396F270 R655 KTN/N0446F380 Q538 KILO
Aircraft A321/M-SDE3FGHIRWY/LB1

Departure

Time 2026-04-25 19:39
Airport Queen Alia International Airport (OJAI)

Arrival

Time 2026-04-25 20:31
Airport Aleppo International Airport (OSAP)
Time Latitude Longitude Altitude Speed Heading
2026-04-25 19:05 31.72421 35.98852 2418 ft 0 kts 159°
2026-04-25 19:27 31.72430 35.98848 2418 ft 4 kts 156°
2026-04-25 19:28 31.72450 35.98837 2417 ft 2 kts 155°
2026-04-25 19:28 31.72474 35.98829 2417 ft 4 kts 172°
2026-04-25 19:28 31.72496 35.98824 2417 ft 4 kts 137°
2026-04-25 19:28 31.72503 35.98800 2417 ft 4 kts 85°
2026-04-25 19:29 31.72500 35.98770 2418 ft 4 kts 80°
2026-04-25 19:29 31.72495 35.98739 2418 ft 4 kts 80°
2026-04-25 19:29 31.72493 35.98728 2418 ft 0 kts 80°
2026-04-25 19:31 31.72495 35.98736 2418 ft 4 kts 80°
2026-04-25 19:32 31.72505 35.98810 2416 ft 14 kts 80°
2026-04-25 19:32 31.72561 35.98921 2417 ft 16 kts 14°
2026-04-25 19:32 31.72648 35.98916 2418 ft 13 kts 16°
2026-04-25 19:32 31.72686 35.98973 2418 ft 16 kts 79°
2026-04-25 19:33 31.72719 35.99187 2418 ft 24 kts 80°
2026-04-25 19:33 31.72750 35.99391 2418 ft 26 kts 80°
2026-04-25 19:33 31.72780 35.99608 2417 ft 27 kts 81°
2026-04-25 19:33 31.72813 35.99832 2418 ft 28 kts 80°
2026-04-25 19:34 31.72848 36.00063 2418 ft 29 kts 80°
2026-04-25 19:34 31.72883 36.00301 2417 ft 30 kts 80°
2026-04-25 19:34 31.72917 36.00544 2418 ft 31 kts 81°
2026-04-25 19:34 31.72953 36.00749 2418 ft 21 kts 60°
2026-04-25 19:35 31.73062 36.00779 2417 ft 8 kts 353°
2026-04-25 19:35 31.73070 36.00778 2418 ft 0 kts 353°
2026-04-25 19:36 31.73083 36.00776 2418 ft 6 kts 353°
2026-04-25 19:36 31.73159 36.00764 2417 ft 13 kts 351°
2026-04-25 19:36 31.73222 36.00731 2417 ft 8 kts 279°
2026-04-25 19:37 31.73218 36.00705 2416 ft 0 kts 260°
2026-04-25 19:38 31.73217 36.00698 2416 ft 2 kts 260°
2026-04-25 19:38 31.73190 36.00503 2417 ft 61 kts 261°
2026-04-25 19:38 31.73075 35.99715 2418 ft 132 kts 259°
2026-04-25 19:38 31.72896 35.98456 2624 ft 167 kts 262°
2026-04-25 19:39 31.72779 35.97112 3392 ft 165 kts 281°
2026-04-25 19:39 31.73297 35.95890 3891 ft 179 kts 314°
2026-04-25 19:39 31.74469 35.95258 4196 ft 202 kts 354°
2026-04-25 19:39 31.75875 35.95786 4340 ft 231 kts 33°
2026-04-25 19:40 31.77144 35.97124 4516 ft 259 kts 44°
2026-04-25 19:40 31.78386 35.98780 4942 ft 278 kts 48°
2026-04-25 19:40 31.79636 36.00548 5650 ft 284 kts 49°
2026-04-25 19:40 31.80910 36.02346 6423 ft 288 kts 49°
2026-04-25 19:41 31.82216 36.04147 7199 ft 290 kts 49°
2026-04-25 19:41 31.83553 36.05941 7957 ft 294 kts 49°
2026-04-25 19:41 31.84923 36.07746 8746 ft 297 kts 49°
2026-04-25 19:41 31.85371 36.08333 8999 ft 298 kts 49°
2026-04-25 19:42 31.87727 36.11398 10223 ft 306 kts 49°
2026-04-25 19:42 31.89210 36.13324 10449 ft 329 kts 49°
2026-04-25 19:42 31.90794 36.15379 10768 ft 345 kts 49°
2026-04-25 19:42 31.92405 36.17465 11348 ft 351 kts 49°
2026-04-25 19:43 31.94057 36.19605 11994 ft 355 kts 49°
2026-04-25 19:43 31.95727 36.21772 12655 ft 359 kts 49°
2026-04-25 19:43 31.97415 36.23969 13290 ft 364 kts 49°
2026-04-25 19:43 31.99126 36.26199 13881 ft 370 kts 49°
2026-04-25 19:44 32.00863 36.28465 14428 ft 375 kts 49°
2026-04-25 19:44 32.02625 36.30764 14999 ft 379 kts 49°
2026-04-25 19:44 32.04400 36.33078 15581 ft 383 kts 49°
2026-04-25 19:44 32.06197 36.35425 16148 ft 387 kts 49°
2026-04-25 19:45 32.08009 36.37794 16731 ft 391 kts 48°
2026-04-25 19:45 32.09846 36.40197 17303 ft 395 kts 48°
2026-04-25 19:45 32.11697 36.42617 17871 ft 399 kts 48°
2026-04-25 19:45 32.13567 36.45062 18405 ft 403 kts 48°
2026-04-25 19:46 32.15503 36.47478 18881 ft 407 kts 42°
2026-04-25 19:46 32.17714 36.49519 19342 ft 410 kts 32°
2026-04-25 19:46 32.20110 36.51364 19829 ft 413 kts 32°
2026-04-25 19:46 32.22528 36.53233 20336 ft 417 kts 32°
2026-04-25 19:47 32.24960 36.55121 20800 ft 420 kts 32°
2026-04-25 19:47 32.27407 36.57029 21282 ft 424 kts 32°
2026-04-25 19:47 32.29931 36.58853 21741 ft 426 kts 25°
2026-04-25 19:47 32.32682 36.60160 22180 ft 427 kts 14°
2026-04-25 19:48 32.35592 36.60861 22625 ft 427 kts
2026-04-25 19:48 32.38559 36.60953 23070 ft 426 kts 352°
2026-04-25 19:48 32.41508 36.60593 23519 ft 428 kts 349°
2026-04-25 19:48 32.44480 36.60201 23894 ft 431 kts 349°
2026-04-25 19:49 32.47472 36.59812 24292 ft 433 kts 349°
2026-04-25 19:49 32.48487 36.59681 24431 ft 434 kts 349°
2026-04-25 19:49 32.53491 36.59037 25103 ft 437 kts 349°
2026-04-25 19:49 32.56519 36.58645 25509 ft 439 kts 349°
2026-04-25 19:50 32.62622 36.57852 26297 ft 443 kts 349°
2026-04-25 19:50 32.65699 36.57448 26689 ft 445 kts 349°
2026-04-25 19:50 32.68781 36.57043 27073 ft 447 kts 349°
2026-04-25 19:51 32.71878 36.56634 27458 ft 449 kts 349°
2026-04-25 19:51 32.75001 36.56250 27818 ft 452 kts 350°
2026-04-25 19:51 32.78148 36.55908 28180 ft 455 kts 350°
2026-04-25 19:51 32.81313 36.55589 28543 ft 457 kts 351°
2026-04-25 19:52 32.84447 36.55285 28894 ft 459 kts 351°
2026-04-25 19:52 32.87635 36.54974 29237 ft 461 kts 350°
2026-04-25 19:52 32.90844 36.54652 29600 ft 463 kts 350°
2026-04-25 19:52 32.94061 36.54319 29945 ft 465 kts 350°
2026-04-25 19:53 32.97298 36.53980 30256 ft 468 kts 350°
2026-04-25 19:53 33.00548 36.53635 30529 ft 470 kts 350°
2026-04-25 19:53 33.03802 36.53276 30813 ft 471 kts 349°
2026-04-25 19:53 33.07058 36.52794 31093 ft 471 kts 347°
2026-04-25 19:54 33.10293 36.52188 31368 ft 471 kts 345°
2026-04-25 19:54 33.13522 36.51507 31631 ft 472 kts 345°
2026-04-25 19:54 33.16752 36.50799 31901 ft 472 kts 345°
2026-04-25 19:54 33.17840 36.50562 32031 ft 472 kts 344°
2026-04-25 19:55 33.23215 36.49429 32566 ft 472 kts 345°
2026-04-25 19:55 33.26450 36.48783 32889 ft 471 kts 345°
2026-04-25 19:55 33.28593 36.48368 33117 ft 471 kts 345°
2026-04-25 19:55 33.31824 36.47752 33464 ft 470 kts 345°
2026-04-25 19:56 33.35073 36.47203 33802 ft 471 kts 350°
2026-04-25 19:56 33.38364 36.47136 34112 ft 476 kts 358°
2026-04-25 19:56 33.41672 36.47525 34383 ft 479 kts
2026-04-25 19:56 33.44993 36.47951 34585 ft 480 kts
2026-04-25 19:57 33.48315 36.48369 34824 ft 480 kts
2026-04-25 19:57 33.51636 36.48786 35085 ft 480 kts
2026-04-25 19:57 33.54952 36.49202 35351 ft 479 kts
2026-04-25 19:57 33.58269 36.49618 35620 ft 479 kts
2026-04-25 19:58 33.61584 36.50034 35911 ft 478 kts
2026-04-25 19:58 33.64898 36.50456 36121 ft 479 kts
2026-04-25 19:58 33.68204 36.50888 36379 ft 478 kts
2026-04-25 19:58 33.71510 36.51327 36641 ft 478 kts
2026-04-25 19:59 33.74809 36.51769 36879 ft 477 kts
2026-04-25 19:59 33.78116 36.52211 37016 ft 477 kts
2026-04-25 19:59 33.81405 36.52651 37056 ft 474 kts
2026-04-25 20:00 33.87940 36.53592 37042 ft 474 kts
2026-04-25 20:00 33.94468 36.54958 37046 ft 476 kts
2026-04-25 20:01 34.04219 36.56425 37034 ft 471 kts 359°
2026-04-25 20:01 34.10743 36.56986 37035 ft 470 kts 358°
2026-04-25 20:02 34.17265 36.57857 37032 ft 479 kts 13°
2026-04-25 20:02 34.20297 36.59576 37038 ft 487 kts 32°
2026-04-25 20:02 34.22816 36.62325 37039 ft 491 kts 51°
2026-04-25 20:03 34.24571 36.65841 37015 ft 489 kts 70°
2026-04-25 20:03 34.25433 36.69790 37002 ft 484 kts 88°
2026-04-25 20:03 34.25124 36.77839 36976 ft 480 kts 99°
2026-04-25 20:04 34.24509 36.85895 36985 ft 482 kts 99°
2026-04-25 20:04 34.23870 36.93973 36994 ft 484 kts 99°
2026-04-25 20:05 34.23233 37.02080 36980 ft 485 kts 99°
2026-04-25 20:05 34.22637 37.10209 36674 ft 487 kts 94°
2026-04-25 20:06 34.22991 37.14295 36439 ft 492 kts 77°
2026-04-25 20:06 34.24239 37.18140 36183 ft 493 kts 60°
2026-04-25 20:06 34.26267 37.21470 35539 ft 494 kts 43°
2026-04-25 20:06 34.28983 37.23950 34996 ft 486 kts 25°
2026-04-25 20:07 34.32038 37.25459 34528 ft 476 kts 10°
2026-04-25 20:07 34.35268 37.26006 34021 ft 464 kts 355°
2026-04-25 20:07 34.38479 37.25951 33488 ft 460 kts 354°
2026-04-25 20:07 34.41658 37.25867 32995 ft 455 kts 354°
2026-04-25 20:08 34.44811 37.25779 32490 ft 451 kts 354°
2026-04-25 20:08 34.47932 37.25688 31999 ft 447 kts 354°
2026-04-25 20:08 34.51031 37.25596 31514 ft 444 kts 354°
2026-04-25 20:08 34.54111 37.25506 31028 ft 441 kts 354°
2026-04-25 20:09 34.57171 37.25418 30557 ft 438 kts 354°
2026-04-25 20:09 34.60210 37.25331 30091 ft 435 kts 354°
2026-04-25 20:09 34.63227 37.25247 29566 ft 432 kts 354°
2026-04-25 20:09 34.66217 37.25164 29125 ft 427 kts 354°
2026-04-25 20:10 34.69131 37.25083 28684 ft 423 kts 354°
2026-04-25 20:10 34.72062 37.25003 28254 ft 418 kts 354°
2026-04-25 20:10 34.74963 37.24922 27828 ft 414 kts 354°
2026-04-25 20:10 34.77823 37.24839 27421 ft 409 kts 354°
2026-04-25 20:11 34.80652 37.24758 27017 ft 405 kts 354°
2026-04-25 20:11 34.83456 37.24678 26620 ft 401 kts 354°
2026-04-25 20:11 34.86230 37.24597 26221 ft 397 kts 354°
2026-04-25 20:11 34.88975 37.24518 25828 ft 392 kts 354°
2026-04-25 20:12 34.91692 37.24440 25415 ft 388 kts 354°
2026-04-25 20:12 34.94380 37.24361 25024 ft 384 kts 354°
2026-04-25 20:12 34.97043 37.24284 24607 ft 381 kts 354°
2026-04-25 20:12 34.98797 37.24233 24337 ft 380 kts 354°
2026-04-25 20:13 35.02315 37.24127 23788 ft 376 kts 354°
2026-04-25 20:13 35.04923 37.24053 23327 ft 375 kts 355°
2026-04-25 20:13 35.07519 37.23982 22897 ft 370 kts 355°
2026-04-25 20:13 35.10082 37.23912 22469 ft 366 kts 355°
2026-04-25 20:14 35.12616 37.23842 22050 ft 362 kts 355°
2026-04-25 20:14 35.15124 37.23770 21636 ft 359 kts 354°
2026-04-25 20:14 35.17574 37.23695 21227 ft 355 kts 354°
2026-04-25 20:14 35.20065 37.23622 20815 ft 352 kts 354°
2026-04-25 20:15 35.22505 37.23549 20417 ft 349 kts 355°
2026-04-25 20:15 35.24922 37.23478 20005 ft 347 kts 355°
2026-04-25 20:15 35.27300 37.23410 19598 ft 345 kts 355°
2026-04-25 20:15 35.29717 37.23340 19189 ft 342 kts 355°
2026-04-25 20:16 35.32057 37.23273 18797 ft 339 kts 355°
2026-04-25 20:16 35.34402 37.23208 18400 ft 336 kts 355°
2026-04-25 20:16 35.36734 37.23142 17970 ft 333 kts 355°
2026-04-25 20:16 35.39038 37.23075 17566 ft 329 kts 355°
2026-04-25 20:17 35.41314 37.23009 17185 ft 325 kts 355°
2026-04-25 20:17 35.43567 37.22941 16801 ft 322 kts 355°
2026-04-25 20:17 35.45799 37.22872 16417 ft 319 kts 355°
2026-04-25 20:17 35.48005 37.22806 16036 ft 316 kts 355°
2026-04-25 20:18 35.50191 37.22744 15655 ft 313 kts 356°
2026-04-25 20:18 35.52362 37.22686 15288 ft 312 kts 356°
2026-04-25 20:18 35.54529 37.22627 14907 ft 310 kts 356°
2026-04-25 20:18 35.56682 37.22569 14544 ft 309 kts 356°
2026-04-25 20:19 35.58827 37.22510 14179 ft 308 kts 356°
2026-04-25 20:19 35.60965 37.22448 13808 ft 307 kts 356°
2026-04-25 20:19 35.63090 37.22384 13431 ft 305 kts 355°
2026-04-25 20:19 35.65214 37.22317 13049 ft 304 kts 355°
2026-04-25 20:20 35.67324 37.22253 12674 ft 303 kts 356°
2026-04-25 20:20 35.69426 37.22192 12303 ft 301 kts 356°
2026-04-25 20:20 35.71519 37.22131 11940 ft 300 kts 356°
2026-04-25 20:20 35.73599 37.22071 11577 ft 298 kts 356°
2026-04-25 20:21 35.75662 37.22011 11216 ft 296 kts 356°
2026-04-25 20:21 35.77692 37.21950 10861 ft 294 kts 356°
2026-04-25 20:21 35.79735 37.21887 10489 ft 293 kts 356°
2026-04-25 20:21 35.81770 37.21828 10138 ft 292 kts 356°
2026-04-25 20:22 35.83797 37.21771 9784 ft 290 kts 356°
2026-04-25 20:22 35.84478 37.21751 9645 ft 290 kts 356°
2026-04-25 20:22 35.87813 37.21657 9048 ft 287 kts 356°
2026-04-25 20:22 35.89803 37.21601 8690 ft 284 kts 356°
2026-04-25 20:23 35.91775 37.21544 8333 ft 283 kts 357°
2026-04-25 20:23 35.93736 37.21485 7992 ft 281 kts 357°
2026-04-25 20:23 35.95688 37.21422 7642 ft 280 kts 357°
2026-04-25 20:23 35.97631 37.21377 7302 ft 279 kts
2026-04-25 20:24 35.99494 37.21944 6930 ft 278 kts 29°
2026-04-25 20:24 36.00960 37.23460 6508 ft 275 kts 57°
2026-04-25 20:24 36.01749 37.25562 6164 ft 268 kts 77°
2026-04-25 20:24 36.02277 37.27758 5824 ft 267 kts 73°
2026-04-25 20:25 36.02973 37.29872 5475 ft 266 kts 67°
2026-04-25 20:25 36.03859 37.31881 5137 ft 265 kts 61°
2026-04-25 20:25 36.04918 37.33741 4785 ft 265 kts 54°
2026-04-25 20:25 36.06140 37.35446 4419 ft 265 kts 48°
2026-04-25 20:26 36.07506 37.36968 4067 ft 262 kts 41°
2026-04-25 20:26 36.08963 37.38251 3750 ft 254 kts 35°
2026-04-25 20:26 36.10453 37.39294 3587 ft 237 kts 30°
2026-04-25 20:26 36.11922 37.40103 3465 ft 229 kts 24°
2026-04-25 20:27 36.13454 37.40597 3368 ft 226 kts
2026-04-25 20:27 36.14935 37.40208 3247 ft 219 kts 335°
2026-04-25 20:27 36.16070 37.39034 3144 ft 211 kts 306°
2026-04-25 20:27 36.16633 37.37398 3053 ft 207 kts 278°
2026-04-25 20:28 36.16806 37.35675 3008 ft 190 kts 275°
2026-04-25 20:28 36.16953 37.34129 2853 ft 172 kts 275°
2026-04-25 20:28 36.17089 37.32711 2675 ft 162 kts 275°
2026-04-25 20:28 36.17219 37.31344 2469 ft 159 kts 276°
2026-04-25 20:29 36.17348 37.29997 2265 ft 156 kts 276°
2026-04-25 20:29 36.17474 37.28682 2050 ft 153 kts 277°
2026-04-25 20:29 36.17590 37.27373 1860 ft 153 kts 277°
2026-04-25 20:29 36.17708 37.26079 1645 ft 150 kts 278°
2026-04-25 20:30 36.17837 37.24798 1438 ft 148 kts 278°
2026-04-25 20:30 36.17958 37.23547 1270 ft 140 kts 278°
2026-04-25 20:30 36.18053 37.22569 1273 ft 83 kts 276°
2026-04-25 20:30 36.18110 37.21956 1271 ft 53 kts 277°
2026-04-25 20:31 36.18165 37.21796 1268 ft 12 kts 12°
2026-04-25 20:31 36.18225 37.21807 1275 ft 9 kts
2026-04-25 20:31 36.18277 37.21848 1270 ft 10 kts 77°
2026-04-25 20:31 36.18269 37.21945 1268 ft 13 kts 98°
2026-04-25 20:32 36.18257 37.22072 1271 ft 18 kts 96°
2026-04-25 20:32 36.18242 37.22260 1272 ft 25 kts 95°
2026-04-25 20:32 36.18222 37.22486 1271 ft 28 kts 97°
2026-04-25 20:32 36.18235 37.22696 1266 ft 20 kts 31°
2026-04-25 20:33 36.18337 37.22752 1267 ft 13 kts 12°
2026-04-25 20:33 36.18389 37.22760 1265 ft 2 kts
2026-04-25 20:33 36.18394 37.22761 1274 ft 0 kts